Weather History for Ft Lauderdale, FL

Change the Weather History Date:

Thursday, December 13, 2012

  Actual Average Record
Temperature  
Mean Temperature 74 °F 71 °F  
Max Temperature 81 °F 78 °F 87 °F (1922)
Min Temperature 66 °F 65 °F 29 °F (1934)
Degree Days  
Heating Degree Days 0 1  
Month to date heating degree days 0 8  
Since 1 July heating degree days 2 10  
Cooling Degree Days 9 7  
Month to date cooling degree days 148 104  
Year to date cooling degree days 4503 4617  
Growing Degree Days 23 (Base 50)    
Moisture  
Dew Point 68 °F    
Average Humidity 87    
Maximum Humidity 100    
Minimum Humidity 74    
Precipitation  
Precipitation T in 0.08 in 0.63 in (1914)
Month to date precipitation 0.45 1.11  
Year to date precipitation 60.57 60.83  
Snow  
Snow 0.00 in - - ()
Month to date snowfall 0.0  
Since 1 July snowfall 0.0  
Snow Depth 0.00 in    
Sea Level Pressure  
Sea Level Pressure 30.07 in    
Wind  
Wind Speed 8 mph (NW)    
Max Wind Speed 17 mph    
Max Gust Speed 21 mph    
Visibility 10 miles    
Events      
T = Trace of Precipitation, MM = Missing Value Source: NWS Daily Summary

Daily Weather History Graph

Daily Weather History Graph

Search for Another Location

Airport:

Trip Planner

Search our weather history database for the weather conditions in past years. The results will help you decide how hot, cold, wet, or windy it might be!

Date:

Astronomy

Dec. 13, 2012 Rise Set
Actual Time 6:59 AM EST 5:30 PM EST
Civil Twilight 6:34 AM EST 5:56 PM EST
Nautical Twilight 6:05 AM EST 6:24 PM EST
Astronomical Twilight 5:37 AM EST 6:53 PM EST
Moon 7:07 AM EST (12/13) 6:09 PM EST (12/13)
Length of Visible Light 11h 22m
Length of Day
10h 31m
New Moon, 0% of the Moon is Illuminated
Dec 13
New Moon
Dec 20
First Quarter
Dec 28
Full
Jan 4
Last Quarter
Jan 11
New

Hourly Weather History & Observations

Time (EST) Temp. Heat Index Dew Point Humidity Pressure Visibility Wind Dir Wind Speed Gust Speed Precip Events Conditions
12:53 AM 73.9 °F - 71.1 °F 91% 30.05 in 10.0 mi Calm Calm - N/A   Clear
1:53 AM 73.9 °F - 71.1 °F 91% 30.05 in 10.0 mi West 3.5 mph - N/A   Mostly Cloudy
2:53 AM 73.0 °F - 71.1 °F 93% 30.04 in 10.0 mi SW 3.5 mph - N/A   Scattered Clouds
3:53 AM 73.0 °F - 71.1 °F 93% 30.03 in 10.0 mi Calm Calm - N/A   Clear
4:53 AM 72.0 °F - 70.0 °F 93% 30.02 in 10.0 mi SSW 3.5 mph - N/A   Clear
5:53 AM 72.0 °F - 70.0 °F 93% 30.05 in 10.0 mi SW 4.6 mph - N/A   Clear
6:53 AM 72.0 °F - 71.1 °F 97% 30.05 in 10.0 mi Calm Calm - N/A   Partly Cloudy
7:53 AM 73.0 °F - 71.1 °F 93% 30.07 in 10.0 mi WSW 3.5 mph - N/A   Scattered Clouds
8:53 AM 75.9 °F - 72.0 °F 87% 30.08 in 10.0 mi SW 6.9 mph - N/A   Partly Cloudy
9:53 AM 79.0 °F - 72.0 °F 79% 30.09 in 10.0 mi Variable 5.8 mph - N/A   Partly Cloudy
10:50 AM 80.6 °F 83.9 °F 69.8 °F 70% 30.09 in 10.0 mi West 8.1 mph - N/A   Mostly Cloudy
10:53 AM 79.0 °F - 70.0 °F 74% 30.09 in 10.0 mi WNW 10.4 mph - N/A   Mostly Cloudy
11:11 AM 80.6 °F 83.9 °F 69.8 °F 70% 30.09 in 10.0 mi WNW 12.7 mph 16.1 mph N/A   Mostly Cloudy
11:53 AM 77.0 °F - 70.0 °F 79% 30.09 in 10.0 mi NW 11.5 mph - 0.00 in   Mostly Cloudy
12:26 PM 77.0 °F - 69.8 °F 78% 30.08 in 10.0 mi NW 11.5 mph - N/A   Mostly Cloudy
12:53 PM 78.1 °F - 69.1 °F 74% 30.06 in 10.0 mi NNW 13.8 mph - N/A   Mostly Cloudy
1:24 PM 75.2 °F - 68.0 °F 78% 30.06 in 10.0 mi North 16.1 mph - N/A   Mostly Cloudy
1:53 PM 77.0 °F - 68.0 °F 74% 30.06 in 10.0 mi NNW 15.0 mph - N/A   Mostly Cloudy
2:04 PM 77.0 °F - 68.0 °F 74% 30.05 in 10.0 mi NNW 15.0 mph - N/A   Mostly Cloudy
2:53 PM 75.0 °F - 66.9 °F 76% 30.05 in 10.0 mi North 13.8 mph - N/A   Mostly Cloudy
3:16 PM 73.4 °F - 66.2 °F 78% 30.06 in 10.0 mi North 12.7 mph - N/A   Mostly Cloudy
3:53 PM 73.0 °F - 66.0 °F 79% 30.06 in 10.0 mi North 15.0 mph - N/A   Overcast
6:53 PM 71.6 °F - 64.4 °F 78% 30.08 in 10.0 mi NNW 11.5 mph - N/A   Overcast
7:53 PM 71.1 °F - 64.0 °F 78% 30.09 in 10.0 mi North 10.4 mph - N/A   Overcast
8:53 PM 70.0 °F - 64.0 °F 81% 30.09 in 10.0 mi North 9.2 mph - N/A   Overcast
9:53 PM 69.1 °F - 64.0 °F 84% 30.09 in 10.0 mi NNW 12.7 mph - N/A   Scattered Clouds
10:53 PM 66.9 °F - 63.0 °F 87% 30.09 in 10.0 mi NNW 11.5 mph - N/A   Partly Cloudy
11:53 PM 66.0 °F - 62.1 °F 87% 30.08 in 10.0 mi NW 6.9 mph - N/A   Scattered Clouds